Location: Jackson Park
(37.2862°N, 79.9123°W)
Time: 14:21:22
(UTC+00:00)

S-56A Canister/Altair - Pass Details

Date: 17 May 2026
Orbit: 633 x 2484 km, 38.9° (Epoch: 6 June)

Event Time Altitude Azimuth Distance (km) Brightness Sun altitude
Rises 05:19:39 0° 284° (WNW) 2,959 - -33.4°
Reaches altitude 10° 05:21:46 10° 281° (WNW) 2,114 - -33.4°
Maximum altitude 05:26:28 68° 199° (SSW) 855 - -33.3°
Drops below altitude 10° 05:32:52 10° 118° (ESE) 2,836 - -33.2°
Sets 05:36:06 0° 116° (ESE) 4,072 - -33.2°
